Wind_Speed
18 18 16 15 15 14 13 12 11 10 10 8 8 7 9 9 10 10 9 5 12 15 16 19 15 15 11 4 3 2 3 2 3 6 3 15 6 9 7 18 7 9 6 21 22
19 18 18 18 17 15 14 13 11 10 10 9 7 7 8 9 12 14 5 9 13 17 21 19 21 18 4 2 2 2 3 5 5 7 5 16 16 14 7 14 6 7 9 25 26
20 20 19 19 18 17 16 14 12 11 9 9 7 7 7 8 9 6 11 12 12 14 18 13 14 12 5 4 5 4 4 5 7 17 17 16 11 14 16 4 11 23 26 32 29
20 20 20 20 19 19 17 16 13 11 9 8 7 6 6 5 5 4 11 16 14 18 23 13 20 8 1 3 7 3 11 7 8 14 16 13 16 7 17 4 18 21 23 34 32
21 20 20 20 20 20 19 17 14 11 9 8 7 6 5 6 8 2 11 18 20 22 22 17 12 6 3 3 5 3 2 8 16 22 21 19 16 8 17 5 9 19 29 33 31
22 21 21 20 20 20 20 19 14 10 8 8 8 6 5 3 7 8 3 22 25 23 23 19 5 6 3 5 6 9 4 5 15 16 18 13 5 8 10 12 15 24 30 32 30
24 23 22 21 20 20 21 18 12 8 8 8 8 6 10 11 7 5 8 13 22 20 21 19 13 5 2 4 2 10 4 5 6 2 2 12 5 8 14 19 22 27 32 32 30
24 24 22 21 20 20 19 13 8 5 6 8 8 6 7 4 12 12 11 14 17 20 20 8 14 13 6 4 5 5 5 2 3 4 1 9 6 3 21 27 27 30 31 33 33
25 24 22 20 20 19 15 10 3 2 6 6 6 6 6 5 11 10 13 16 16 19 21 7 5 7 2 4 4 7 3 0 3 3 2 3 4 5 23 26 26 29 28 31 34
26 24 22 20 18 13 12 6 5 3 5 5 6 3 9 3 7 11 17 14 11 13 15 11 8 3 3 5 5 5 3 2 3 2 3 1 5 6 21 22 26 28 30 29 33
26 24 21 19 15 8 7 2 2 0 6 8 2 4 1 0 3 10 16 19 13 5 4 2 3 5 9 6 3 5 3 6 4 3 3 6 5 5 21 19 19 24 30 33 35
26 24 21 17 14 1 3 3 5 5 9 13 19 24 23 13 4 6 15 12 7 6 3 3 4 7 4 7 6 4 4 4 2 1 1 1 6 7 17 25 29 29 28 35 33
25 24 21 16 10 4 2 2 5 8 3 6 6 14 18 11 8 8 17 13 4 5 6 6 5 5 4 4 5 3 7 6 4 2 2 3 5 4 7 8 21 27 33 32 37
25 23 21 15 5 4 3 3 5 6 5 5 2 2 11 5 4 12 17 13 3 11 9 6 5 4 3 3 7 6 12 4 5 3 3 4 5 6 6 9 10 24 34 40 40
25 23 18 15 11 7 4 5 5 1 3 1 2 5 12 10 5 10 15 12 9 6 7 8 7 4 6 6 6 5 5 5 4 3 1 2 1 4 8 8 15 23 32 40 41
24 22 17 13 9 6 5 2 5 5 3 4 4 3 4 2 2 4 5 8 5 5 1 7 2 5 5 4 5 8 7 8 4 3 2 3 4 8 6 7 9 19 34 42 39
23 18 13 9 2 6 3 4 5 4 4 4 1 4 5 5 3 3 5 3 6 4 3 3 3 3 3 4 4 7 7 3 3 3 6 3 2 11 10 9 6 12 28 34 42
19 8 5 3 7 6 3 4 2 1 3 3 4 2 5 7 4 3 5 4 3 5 3 6 6 8 4 8 8 6 8 6 7 5 4 3 6 8 6 5 9 19 15 18 33
9 11 11 6 5 5 3 3 5 4 3 6 6 5 5 4 4 2 7 7 8 9 8 6 6 4 5 5 10 6 4 6 7 3 1 4 8 11 9 5 4 15 20 22 26
8 10 14 8 7 2 4 3 2 4 4 1 1 1 2 3 3 5 6 1 5 9 1 7 2 6 5 4 4 6 6 3 2 4 4 5 6 6 9 12 6 8 19 23 27
2 3 11 2 5 4 4 4 4 4 4 2 1 2 2 2 1 2 1 1 3 4 6 5 5 4 3 4 9 1 1 5 5 4 6 4 7 9 13 11 7 9 22 26 28
4 3 11 3 5 3 2 4 7 6 10 5 4 2 2 1 1 2 4 1 10 3 2 3 5 4 11 3 2 6 9 7 5 5 2 3 7 7 13 8 9 13 21 23 26
5 4 11 4 3 3 6 4 2 8 7 7 7 5 4 4 1 3 3 1 9 7 1 4 1 1 8 6 1 5 6 5 3 3 8 5 8 3 7 8 15 15 15 20 24
5 3 9 12 6 4 4 4 6 11 2 7 4 4 6 7 5 3 6 3 11 4 6 4 3 5 6 7 1 4 6 6 6 4 5 7 10 8 9 8 7 14 17 17 22
7 2 3 3 5 3 3 4 4 6 7 14 5 6 3 5 5 5 4 7 5 5 4 3 4 3 8 9 7 7 5 8 5 7 7 10 11 13 11 11 14 20 11 16 18
5 4 3 2 3 3 5 4 3 5 3 5 4 8 4 4 2 4 5 3 5 6 6 2 2 1 5 6 2 6 10 10 5 3 8 1 7 13 19 13 13 25 16 17 22
8 6 3 5 3 2 1 3 3 4 4 4 7 4 5 3 13 24 22 18 11 5 3 3 2 3 5 6 7 3 8 9 6 5 6 4 12 2 6 10 17 24 22 28 26
Wind_Direction
359 358 352 348 340 333 328 323 316 312 312 316 314 308 292 289 276 265 257 236 186 170 166 151 159 162 155 176 181 159 62 150 182 148 168 150 129 149 143 139 161 170 181 163 160
353 352 350 349 345 337 330 322 310 305 303 307 308 303 291 290 278 261 217 188 186 174 170 163 164 166 172 182 193 163 118 215 196 168 159 162 145 148 128 157 143 146 147 162 163
347 346 345 344 341 339 333 322 308 299 294 296 300 298 292 296 286 258 203 193 194 172 168 153 172 159 174 187 205 187 203 200 200 175 162 159 150 163 137 200 193 164 160 170 169
341 341 339 338 337 335 331 324 309 293 284 283 290 289 285 280 197 187 182 198 184 172 172 144 169 168 141 215 187 212 242 234 163 167 152 163 159 174 172 211 199 198 179 174 177
337 335 335 333 332 330 327 322 309 288 275 271 277 278 275 255 247 171 182 184 184 185 189 199 181 172 205 210 159 236 272 158 163 174 168 162 173 176 199 204 172 181 177 177 183
334 333 331 330 330 328 325 319 305 281 262 262 263 265 256 242 241 229 174 180 191 192 195 204 220 225 288 246 171 203 141 127 165 166 166 165 163 172 183 189 166 177 182 182 188
331 331 330 329 328 328 326 314 303 273 246 244 252 258 257 247 219 210 207 200 193 201 203 213 219 204 301 287 301 117 76 54 31 126 83 140 126 211 181 181 170 181 181 187 193
331 330 330 328 329 332 328 321 306 262 230 223 238 256 251 204 223 235 185 188 201 210 211 234 247 258 253 317 31 80 67 118 329 315 82 154 250 284 185 173 167 177 183 191 197
331 330 329 329 331 340 340 341 331 198 201 205 219 230 255 226 221 207 195 186 191 206 217 207 220 224 288 77 38 18 177 220 309 32 204 161 238 165 174 172 169 177 189 197 204
330 328 330 330 333 345 352 50 64 138 174 188 205 251 245 167 171 195 190 184 156 181 210 206 188 112 41 82 198 191 177 266 200 266 10 264 230 166 180 176 180 183 190 204 213
330 328 330 331 333 336 348 254 300 220 221 217 177 224 208 136 156 197 198 201 191 164 153 152 110 192 202 170 147 138 145 194 230 202 156 218 271 211 177 183 187 194 197 204 217
329 327 328 330 330 309 30 97 50 312 296 269 247 249 251 252 326 200 200 180 150 175 116 12 216 225 110 145 126 129 195 240 306 120 144 305 245 198 185 196 191 195 204 208 217
327 327 324 331 324 199 171 102 353 340 293 292 242 236 236 240 231 232 189 175 137 126 163 181 230 147 157 128 118 189 201 211 214 135 182 315 273 226 198 191 202 209 214 215 216
326 326 322 332 313 260 234 245 323 328 49 279 249 205 170 155 233 213 186 181 132 187 159 222 260 197 150 202 150 196 226 207 134 96 224 102 286 247 201 206 208 206 211 219 223
324 321 319 318 299 288 219 264 286 287 31 357 128 152 169 174 140 190 187 171 166 171 119 229 179 164 209 193 173 233 125 118 95 85 17 224 41 263 122 223 232 211 208 213 222
324 318 311 305 293 257 217 276 149 47 254 359 124 125 139 286 168 124 163 190 140 115 84 204 195 158 210 175 135 136 73 44 62 88 315 229 129 285 181 204 194 211 211 209 211
328 313 302 288 254 177 186 150 49 140 333 324 339 69 210 191 227 142 146 128 158 103 232 355 221 259 156 137 52 83 76 19 355 359 229 276 93 241 275 231 232 197 214 211 215
337 333 327 245 206 205 178 59 182 216 289 334 335 335 186 163 204 106 116 195 264 92 121 164 312 187 193 182 183 183 148 153 190 207 250 76 233 251 246 273 231 221 214 213 213
16 90 53 62 147 147 148 88 214 208 299 327 327 67 351 43 101 94 174 198 199 170 182 141 261 287 189 159 146 183 159 177 101 25 86 222 282 303 282 318 181 204 204 207 211
87 82 44 72 93 82 79 215 251 224 307 346 305 78 9 341 92 149 183 47 324 204 122 212 276 225 258 105 70 159 163 85 18 147 232 284 288 246 288 283 193 209 207 204 206
119 89 8 61 8 41 119 231 292 289 310 218 287 304 242 304 166 145 95 122 327 315 169 146 147 245 138 181 168 40 167 57 121 133 172 212 258 224 245 250 250 226 224 215 207
46 56 359 158 44 26 60 334 334 335 358 357 29 258 284 275 282 145 135 96 354 297 103 199 159 197 210 192 183 172 193 152 135 238 237 198 262 230 235 249 251 240 227 214 211
16 5 24 150 89 2 321 326 3 9 1 9 1 39 359 34 276 33 337 170 10 33 40 172 223 355 331 352 26 198 193 140 121 102 193 147 262 331 283 268 263 241 228 223 215
8 26 27 62 59 98 10 356 330 360 61 356 356 54 33 26 15 355 346 312 340 10 354 116 116 160 207 214 175 178 190 191 129 113 169 216 263 281 274 271 269 241 236 225 219
31 61 35 358 8 35 3 12 359 1 351 16 34 35 324 21 5 4 344 325 320 351 17 111 166 210 249 256 206 230 191 179 155 184 166 242 199 248 238 244 248 263 225 219 200
44 30 25 68 331 12 1 21 34 341 325 348 38 331 353 105 114 299 21 293 269 331 345 7 241 151 294 352 306 242 231 180 226 157 269 207 269 234 255 269 266 265 233 211 210
43 21 2 8 6 71 20 334 340 356 284 86 341 340 342 74 305 279 265 253 264 340 300 325 95 37 273 339 321 299 205 181 203 196 157 167 236 77 244 240 242 249 246 231 213
Height
1503 1500 1498 1495 1492 1490 1488 1486 1486 1484 1483 1483 1483 1482 1480 1480 1480 1481 1481 1481 1482 1483 1486 1487 1490 1492 1494 1496 1497 1498 1505 1511 1506 1509 1505 1506 1509 1513 1514 1516 1520 1522 1523 1526 1531
1502 1499 1496 1494 1491 1489 1487 1485 1483 1482 1482 1481 1481 1481 1479 1479 1477 1476 1480 1479 1481 1482 1484 1484 1487 1491 1495 1496 1497 1498 1505 1501 1494 1496 1500 1503 1506 1510 1515 1518 1520 1521 1523 1527 1530
1501 1498 1495 1492 1489 1487 1485 1482 1481 1480 1480 1479 1479 1479 1478 1477 1476 1474 1476 1478 1480 1484 1485 1487 1490 1493 1494 1496 1496 1496 1500 1491 1491 1492 1496 1502 1506 1509 1512 1518 1514 1516 1521 1525 1530
1500 1496 1493 1490 1487 1485 1483 1480 1478 1477 1477 1477 1477 1477 1477 1476 1482 1472 1474 1477 1480 1484 1485 1488 1491 1492 1493 1495 1494 1496 1488 1489 1489 1493 1498 1502 1505 1508 1509 1510 1512 1515 1519 1524 1529
1498 1495 1491 1488 1485 1482 1480 1478 1475 1474 1474 1475 1475 1475 1475 1475 1472 1472 1472 1475 1479 1482 1484 1486 1488 1490 1492 1490 1491 1492 1486 1486 1488 1491 1495 1501 1503 1506 1508 1509 1511 1516 1520 1524 1529
1496 1493 1489 1486 1483 1480 1476 1473 1471 1471 1471 1472 1472 1473 1474 1475 1470 1470 1472 1473 1476 1479 1482 1485 1487 1488 1489 1488 1489 1487 1487 1489 1490 1492 1495 1499 1504 1505 1507 1509 1512 1514 1519 1523 1528
1494 1490 1486 1483 1480 1476 1473 1469 1468 1468 1468 1470 1470 1471 1471 1469 1468 1469 1470 1473 1476 1478 1481 1484 1487 1490 1490 1487 1485 1486 1494 1493 1495 1496 1498 1499 1506 1503 1504 1507 1510 1515 1518 1523 1527
1491 1487 1483 1480 1476 1473 1469 1466 1465 1465 1466 1467 1468 1469 1467 1466 1466 1468 1470 1474 1478 1481 1484 1487 1489 1490 1489 1486 1486 1492 1496 1508 1499 1497 1497 1498 1513 1501 1502 1505 1510 1514 1518 1522 1524
1488 1484 1481 1477 1474 1471 1467 1464 1463 1463 1464 1466 1468 1468 1464 1464 1465 1468 1471 1473 1477 1480 1484 1487 1489 1489 1486 1490 1501 1503 1515 1509 1503 1497 1497 1498 1504 1500 1502 1503 1507 1511 1517 1520 1524
1484 1481 1478 1474 1472 1469 1466 1464 1463 1463 1464 1465 1467 1470 1461 1461 1463 1466 1470 1474 1477 1480 1486 1487 1486 1489 1492 1499 1525 1514 1509 1506 1505 1498 1497 1500 1499 1498 1501 1503 1505 1508 1513 1518 1521
1481 1478 1475 1472 1470 1467 1466 1465 1467 1466 1463 1460 1461 1460 1459 1460 1460 1463 1468 1471 1475 1478 1482 1480 1488 1496 1491 1490 1493 1499 1501 1504 1497 1494 1499 1500 1498 1497 1498 1503 1505 1507 1508 1511 1513
1479 1475 1472 1470 1468 1466 1465 1465 1464 1466 1460 1455 1455 1457 1457 1459 1461 1460 1464 1469 1472 1480 1480 1485 1493 1480 1482 1488 1493 1498 1501 1502 1498 1496 1501 1500 1498 1491 1493 1491 1494 1500 1504 1505 1510
1476 1472 1469 1467 1465 1465 1465 1465 1464 1463 1461 1452 1451 1452 1455 1458 1460 1458 1461 1464 1469 1480 1481 1490 1482 1477 1482 1488 1496 1500 1501 1500 1499 1498 1499 1503 1502 1494 1490 1494 1497 1498 1500 1503 1504
1473 1470 1466 1464 1466 1463 1463 1464 1463 1462 1473 1455 1450 1450 1452 1456 1458 1457 1459 1463 1469 1477 1481 1482 1475 1478 1482 1487 1491 1508 1487 1488 1497 1507 1518 1503 1526 1499 1490 1492 1491 1491 1492 1493 1498
1470 1466 1465 1463 1462 1461 1463 1463 1463 1464 1491 1449 1449 1449 1450 1453 1453 1453 1457 1460 1467 1471 1477 1482 1478 1479 1483 1483 1482 1491 1485 1491 1498 1509 1510 1508 1521 1492 1491 1495 1482 1480 1482 1483 1488
1466 1462 1461 1459 1459 1460 1460 1461 1463 1481 1489 1452 1448 1450 1452 1451 1451 1452 1455 1458 1462 1468 1469 1473 1471 1472 1473 1473 1477 1483 1491 1501 1510 1517 1528 1507 1512 1492 1487 1471 1472 1470 1471 1471 1477
1462 1458 1456 1456 1457 1458 1460 1462 1481 1490 1455 1457 1452 1451 1452 1455 1453 1451 1457 1462 1471 1485 1485 1476 1475 1470 1469 1477 1481 1488 1506 1542 1538 1540 1536 1513 1516 1490 1461 1460 1457 1461 1461 1466 1471
1457 1454 1453 1453 1454 1457 1459 1465 1480 1465 1462 1452 1451 1451 1455 1452 1453 1454 1460 1469 1463 1469 1491 1496 1500 1474 1467 1471 1483 1490 1496 1530 1543 1548 1527 1520 1517 1481 1450 1450 1451 1452 1455 1458 1463
1456 1455 1455 1455 1455 1457 1460 1480 1474 1469 1459 1458 1455 1458 1459 1451 1450 1455 1463 1468 1463 1464 1480 1497 1493 1464 1463 1463 1468 1488 1498 1489 1521 1529 1530 1517 1494 1462 1447 1444 1446 1448 1451 1452 1456
1458 1457 1458 1458 1458 1459 1463 1476 1468 1462 1458 1456 1463 1456 1463 1456 1455 1459 1465 1460 1461 1457 1454 1468 1485 1466 1458 1460 1465 1471 1474 1502 1517 1529 1529 1516 1509 1489 1457 1446 1446 1446 1446 1448 1451
1459 1459 1461 1460 1460 1459 1475 1474 1466 1460 1459 1459 1459 1460 1459 1456 1455 1459 1461 1460 1457 1455 1455 1464 1471 1472 1463 1468 1476 1479 1485 1492 1500 1511 1523 1527 1511 1456 1448 1440 1439 1439 1439 1444 1446
1460 1463 1462 1461 1463 1470 1474 1472 1467 1462 1459 1459 1458 1459 1459 1457 1457 1458 1462 1459 1454 1453 1457 1458 1471 1481 1468 1456 1456 1461 1469 1477 1502 1503 1515 1511 1494 1435 1436 1434 1434 1433 1434 1438 1442
1464 1464 1464 1463 1476 1480 1474 1471 1468 1467 1466 1464 1463 1464 1461 1464 1464 1462 1460 1455 1453 1454 1455 1455 1471 1485 1476 1468 1458 1460 1463 1467 1478 1487 1507 1504 1480 1433 1432 1433 1427 1428 1431 1435 1440
1469 1470 1468 1468 1476 1478 1481 1478 1474 1470 1469 1469 1468 1464 1466 1470 1469 1468 1464 1455 1453 1454 1453 1454 1471 1475 1484 1468 1456 1457 1456 1465 1463 1487 1490 1485 1458 1441 1430 1429 1426 1425 1426 1429 1434
1473 1481 1483 1485 1481 1483 1482 1482 1480 1480 1473 1472 1470 1473 1473 1476 1474 1474 1467 1463 1455 1454 1453 1456 1467 1463 1460 1456 1452 1447 1446 1457 1454 1458 1465 1453 1459 1434 1428 1423 1420 1419 1426 1427 1431
1479 1483 1483 1484 1484 1482 1485 1488 1483 1483 1481 1478 1480 1478 1473 1477 1480 1481 1476 1471 1466 1458 1457 1457 1464 1462 1459 1449 1446 1445 1438 1445 1448 1451 1449 1444 1449 1420 1414 1418 1419 1416 1420 1423 1425
1484 1484 1485 1488 1486 1486 1490 1488 1485 1485 1479 1479 1481 1480 1478 1479 1479 1473 1472 1470 1467 1469 1465 1463 1463 1468 1468 1457 1450 1451 1436 1437 1435 1436 1432 1442 1426 1414 1414 1414 1412 1410 1412 1415 1419